TimeCST,TemperatureF,Dew PointF,Humidity,Sea Level PressureIn,VisibilityMPH,Wind Direction,Wind SpeedMPH,Gust SpeedMPH,PrecipitationIn,Events,Conditions,WindDirDegrees,DateUTC
12:15 AM,33.8,28.4,81,29.66,10.0,Calm,Calm,-,N/A,,Overcast,0,2013-02-14 06:15:00
12:35 AM,33.8,28.4,81,29.66,10.0,Calm,Calm,-,N/A,,Overcast,0,2013-02-14 06:35:00
12:55 AM,33.8,28.4,81,29.65,10.0,South,4.6,-,N/A,,Overcast,180,2013-02-14 06:55:00
1:15 AM,33.8,28.4,81,29.65,10.0,South,4.6,-,N/A,,Overcast,170,2013-02-14 07:15:00
1:35 AM,33.8,28.4,81,29.64,10.0,South,4.6,-,N/A,,Overcast,180,2013-02-14 07:35:00
1:55 AM,33.8,30.2,87,29.64,10.0,South,5.8,-,N/A,,Light Drizzle,190,2013-02-14 07:55:00
2:15 AM,33.8,30.2,87,29.63,7.0,SSE,3.5,-,N/A,Rain,Light Rain,160,2013-02-14 08:15:00
3:15 AM,33.8,32.0,93,29.60,2.0,SSE,4.6,-,0.01,Snow,Light Snow,150,2013-02-14 09:15:00
3:35 AM,33.8,32.0,93,29.59,5.0,SSE,6.9,-,0.01,Rain,Light Rain,160,2013-02-14 09:35:00
3:55 AM,33.8,32.0,93,29.58,5.0,SSE,5.8,-,0.01,Rain,Light Rain,160,2013-02-14 09:55:00
4:15 AM,33.8,32.0,93,29.57,7.0,SSE,4.6,-,N/A,,Overcast,160,2013-02-14 10:15:00
4:35 AM,33.8,32.0,93,29.56,7.0,SE,3.5,-,N/A,,Overcast,140,2013-02-14 10:35:00
4:55 AM,33.8,32.0,93,29.57,7.0,South,5.8,-,N/A,,Overcast,180,2013-02-14 10:55:00
5:15 AM,33.8,32.0,93,29.56,7.0,South,4.6,-,N/A,,Overcast,170,2013-02-14 11:15:00
5:35 AM,33.8,32.0,93,29.56,7.0,South,4.6,-,N/A,,Overcast,170,2013-02-14 11:35:00
5:55 AM,33.8,32.0,93,29.55,7.0,South,4.6,-,N/A,,Overcast,170,2013-02-14 11:55:00
6:15 AM,33.8,32.0,93,29.55,7.0,South,4.6,-,N/A,,Overcast,190,2013-02-14 12:15:00
6:35 AM,33.8,32.0,93,29.55,7.0,South,5.8,-,N/A,,Overcast,190,2013-02-14 12:35:00
6:55 AM,33.8,32.0,93,29.55,5.0,SSW,3.5,-,N/A,,Overcast,200,2013-02-14 12:55:00
7:15 AM,33.8,32.0,93,29.55,7.0,SSW,3.5,-,N/A,,Overcast,210,2013-02-14 13:15:00
7:35 AM,33.8,32.0,93,29.56,7.0,SW,4.6,-,N/A,,Overcast,220,2013-02-14 13:35:00
7:55 AM,33.8,32.0,93,29.56,10.0,SW,4.6,-,N/A,,Overcast,230,2013-02-14 13:55:00
8:15 AM,35.6,32.0,87,29.56,10.0,WSW,5.8,-,N/A,,Overcast,240,2013-02-14 14:15:00
8:35 AM,35.6,32.0,87,29.56,10.0,WSW,5.8,-,N/A,,Overcast,240,2013-02-14 14:35:00
8:55 AM,35.6,32.0,87,29.56,10.0,WSW,9.2,-,N/A,,Overcast,250,2013-02-14 14:55:00
9:15 AM,33.8,32.0,93,29.56,4.0,West,10.4,-,N/A,Snow,Light Snow,260,2013-02-14 15:15:00
9:35 AM,33.8,32.0,93,29.57,10.0,WSW,10.4,-,N/A,Snow,Light Snow,250,2013-02-14 15:35:00
9:55 AM,33.8,32.0,93,29.57,2.5,WSW,9.2,-,N/A,Snow,Light Snow,250,2013-02-14 15:55:00
10:15 AM,33.8,32.0,93,29.58,1.2,WSW,6.9,-,0.02,Snow,Light Snow,250,2013-02-14 16:15:00
10:35 AM,33.8,32.0,93,29.58,1.0,West,10.4,-,0.02,Snow,Light Snow,260,2013-02-14 16:35:00
10:55 AM,33.8,32.0,93,29.59,4.0,West,12.7,-,0.02,Snow,Light Snow,270,2013-02-14 16:55:00
11:15 AM,33.8,32.0,93,29.60,5.0,West,12.7,17.3,N/A,Snow,Light Snow,270,2013-02-14 17:15:00
11:35 AM,33.8,32.0,93,29.60,5.0,West,12.7,18.4,N/A,Snow,Light Snow,280,2013-02-14 17:35:00
11:55 AM,33.8,32.0,93,29.62,7.0,West,16.1,25.3,N/A,,Overcast,280,2013-02-14 17:55:00
12:15 PM,32.0,32.0,100,29.62,2.5,WNW,17.3,23.0,N/A,Snow,Light Snow,300,2013-02-14 18:15:00
12:35 PM,32.0,32.0,100,29.63,2.5,NW,13.8,20.7,N/A,Rain,Rain,310,2013-02-14 18:35:00
12:55 PM,32.0,30.2,93,29.65,10.0,NW,15.0,20.7,N/A,Snow,Light Snow,320,2013-02-14 18:55:00
1:15 PM,32.0,30.2,93,29.67,10.0,NW,17.3,27.6,N/A,Snow,Light Snow,310,2013-02-14 19:15:00
1:35 PM,32.0,28.4,87,29.68,10.0,NW,19.6,25.3,N/A,,Overcast,320,2013-02-14 19:35:00
1:55 PM,32.0,28.4,87,29.69,10.0,WNW,13.8,18.4,N/A,,Overcast,300,2013-02-14 19:55:00
2:15 PM,32.0,28.4,87,29.71,10.0,WNW,17.3,24.2,N/A,,Overcast,300,2013-02-14 20:15:00
2:35 PM,32.0,28.4,87,29.71,10.0,NW,15.0,-,N/A,,Overcast,310,2013-02-14 20:35:00
2:55 PM,32.0,28.4,87,29.73,10.0,WNW,15.0,21.9,N/A,,Overcast,300,2013-02-14 20:55:00
3:15 PM,32.0,28.4,87,29.74,10.0,WNW,15.0,19.6,N/A,,Overcast,290,2013-02-14 21:15:00
3:35 PM,32.0,28.4,87,29.76,10.0,WNW,13.8,-,N/A,Snow,Light Snow,290,2013-02-14 21:35:00
3:55 PM,32.0,28.4,87,29.78,5.0,WNW,10.4,-,N/A,Snow,Light Snow,290,2013-02-14 21:55:00
4:15 PM,32.0,28.4,87,29.79,2.0,WNW,12.7,20.7,N/A,Snow,Light Snow,290,2013-02-14 22:15:00
4:35 PM,32.0,28.4,87,29.81,0.8,WNW,9.2,-,N/A,Snow,Light Snow,300,2013-02-14 22:35:00
4:55 PM,32.0,28.4,87,29.82,5.0,WNW,8.1,-,N/A,Snow,Light Snow,300,2013-02-14 22:55:00
5:15 PM,32.0,28.4,87,29.84,0.8,WNW,9.2,-,N/A,Snow,Light Snow,290,2013-02-14 23:15:00
5:35 PM,32.0,28.4,87,29.85,0.8,WNW,9.2,-,N/A,Snow,Light Snow,290,2013-02-14 23:35:00
5:55 PM,30.2,28.4,93,29.85,3.0,West,9.2,-,N/A,Snow,Light Snow,280,2013-02-14 23:55:00
6:15 PM,32.0,28.4,87,29.86,4.0,West,8.1,-,N/A,Snow,Light Snow,280,2013-02-15 00:15:00
6:35 PM,32.0,28.4,87,29.87,10.0,West,6.9,-,N/A,Snow,Light Snow,280,2013-02-15 00:35:00
6:55 PM,32.0,26.6,80,29.88,10.0,WNW,8.1,-,N/A,,Overcast,290,2013-02-15 00:55:00
7:15 PM,32.0,26.6,80,29.88,10.0,West,10.4,-,N/A,,Mostly Cloudy,280,2013-02-15 01:15:00
7:35 PM,32.0,24.8,75,29.88,10.0,West,9.2,-,N/A,,Mostly Cloudy,280,2013-02-15 01:35:00
7:55 PM,30.2,24.8,80,29.89,10.0,West,9.2,-,N/A,,Overcast,280,2013-02-15 01:55:00
8:15 PM,30.2,23.0,75,29.89,10.0,West,9.2,-,N/A,,Overcast,270,2013-02-15 02:15:00
8:35 PM,30.2,23.0,75,29.90,10.0,West,8.1,-,N/A,,Overcast,280,2013-02-15 02:35:00
8:55 PM,30.2,23.0,75,29.91,10.0,West,9.2,-,N/A,,Overcast,280,2013-02-15 02:55:00
9:15 PM,30.2,23.0,75,29.91,10.0,WNW,5.8,-,N/A,,Overcast,300,2013-02-15 03:15:00
9:35 PM,30.2,23.0,75,29.91,10.0,NW,5.8,-,N/A,Snow,Light Snow,320,2013-02-15 03:35:00
9:55 PM,30.2,23.0,75,29.92,7.0,NW,5.8,-,N/A,Snow,Light Snow,310,2013-02-15 03:55:00
10:15 PM,30.2,24.8,80,29.93,7.0,NW,4.6,-,N/A,Snow,Light Snow,320,2013-02-15 04:15:00
10:35 PM,28.4,24.8,86,29.93,5.0,NNW,5.8,-,N/A,Snow,Light Snow,330,2013-02-15 04:35:00
10:55 PM,28.4,24.8,86,29.94,4.0,NNW,5.8,-,N/A,Snow,Light Snow,330,2013-02-15 04:55:00
11:15 PM,28.4,24.8,86,29.95,2.0,NNW,5.8,-,N/A,Snow,Light Snow,340,2013-02-15 05:15:00
11:35 PM,28.4,23.0,80,29.95,2.0,NNW,8.1,-,N/A,Snow,Light Snow,340,2013-02-15 05:35:00
11:55 PM,26.6,23.0,86,29.96,2.0,NNW,8.1,-,N/A,Snow,Light Snow,340,2013-02-15 05:55:00